Home > Weather > Tirana > Past weeks

Flag for Albania Weather for the Past 2 Weeks in Tirana, Albania

Now
59 °F

Broken clouds.


Feels Like: 59 °F
Forecast: 50 / 65 °F
Wind: 5 mph from Northwest

Location: Tirana Airport

Current Time: May 3, 2016 at 7:07:36 PM

Latest Report: May 3, 2016 at 6:20 PM


Visibility: N/A

Pressure: 29.74 "Hg

Humidity: 63%

Dew Point: 46 °F

Location of TiranaLocation

Historic Weather in Tirana — Graph

°F

Tirana Temperature Yesterday

Maximum temperature yesterday: 70 °F (at 1:20 PM)
Minimum temperature yesterday: 55 °F (at 5:20 AM)
Average temperature yesterday: 61 °F

High & Low Weather Summary for the Past Weeks

 TemperatureHumidityPressure
High75 °F (Apr 18, 5:20 PM)100% (May 2, 5:20 AM)30.21 "Hg (May 2, 5:20 AM)
Low39 °F (Apr 21, 5:50 AM)16% (Apr 21, 1:50 PM)29.50 "Hg (Apr 25, 4:50 PM)
Average60 °F68%29.89 "Hg
* Reported Apr 18 5:20 PM — May 3 5:50 PM, Tirana, Weather by CustomWeather, © 2016

Note: Actual official high and low records may vary slightly from our data, if they occured in-between our weather recording intervals... More about our weather records

Advertising

Tirana Weather History for the Previous 24 Hours

Scroll right to see more
 ConditionsComfort  
Time TempWeatherWind HumidityBarometerVisibility
5:50 PM
Tue, May 3
61 °FBroken clouds.7 mph55%29.74 "HgN/A
5:20 PM61 °FScattered clouds.6 mph55%29.74 "HgN/A
4:50 PM63 °FScattered clouds.5 mph56%29.74 "HgN/A
4:20 PM61 °FScattered clouds.3 mph59%29.74 "HgN/A
3:50 PM59 °FBroken clouds.5 mph59%29.74 "HgN/A
3:20 PM57 °FLight rain. Broken clouds.5 mph67%29.74 "HgN/A
2:50 PM57 °FLight rain. Broken clouds.3 mph67%29.74 "HgN/A
2:20 PM57 °FLight rain. Broken clouds.3 mph67%29.74 "HgN/A
1:20 PM57 °FLight rain. Mostly cloudy.5 mph72%29.74 "HgN/A
12:50 PM55 °FLight rain. Mostly cloudy.3 mph72%29.77 "HgN/A
12:20 PM55 °FLight rain. Mostly cloudy.5 mph72%29.77 "HgN/A
11:50 AM55 °FLight rain. Mostly cloudy.5 mph67%29.77 "HgN/A
11:20 AM57 °FLight rain. Mostly cloudy.5 mph67%29.74 "HgN/A
10:50 AM55 °FLight rain. Mostly cloudy.3 mph72%29.74 "HgN/A
10:20 AM55 °FLight rain. More clouds than sun.5 mph72%29.74 "HgN/A
9:50 AM55 °FMore clouds than sun.5 mph72%29.74 "HgN/A
9:20 AM55 °FLight rain. Partly sunny.1 mph72%29.71 "HgN/A
8:50 AM54 °FLight rain. Partly sunny.2 mph77%29.71 "HgN/A
8:20 AM54 °FLight rain. Partly sunny.2 mph77%29.71 "HgN/A
7:20 AM54 °FMore clouds than sun.3 mph77%29.71 "HgN/A
6:50 AM52 °FBroken clouds.2 mph82%29.68 "HgN/A
6:20 AM52 °FPartly cloudy.No wind88%29.68 "HgN/A
5:50 AM52 °FPartly cloudy.2 mph82%29.68 "HgN/A
5:20 AM54 °FMostly cloudy.3 mph77%29.68 "HgN/A
4:50 AM54 °FMostly cloudy.8 mph77%29.68 "HgN/A
4:20 AM54 °FMostly cloudy.8 mph77%29.71 "HgN/A
3:50 AM54 °FMostly cloudy.7 mph77%29.71 "HgN/A
3:20 AM54 °FPartly cloudy.8 mph77%29.71 "HgN/A
2:20 AM54 °FPartly cloudy.7 mph82%29.71 "HgN/A
1:50 AM55 °FPassing clouds.7 mph77%29.71 "HgN/A
1:20 AM55 °FMostly cloudy.7 mph77%29.71 "HgN/A
12:20 AM55 °FOvercast.7 mph77%29.71 "HgN/A
11:50 PM
Mon, May 2
55 °FMostly cloudy.6 mph82%29.71 "HgN/A
11:20 PM55 °FLight rain. Mostly cloudy.7 mph82%29.71 "HgN/A
10:50 PM55 °FLight rain. Mostly cloudy.9 mph82%29.68 "HgN/A
10:20 PM55 °FMostly cloudy.7 mph82%29.68 "HgN/A
9:50 PM57 °FMostly cloudy.6 mph77%29.68 "HgN/A
9:20 PM57 °FPartly cloudy.6 mph77%29.68 "HgN/A
8:50 PM57 °FMostly cloudy.5 mph77%29.65 "HgN/A
8:20 PM57 °FMostly cloudy.7 mph72%29.65 "HgN/A
7:50 PM59 °FMostly cloudy.8 mph72%29.65 "HgN/A
7:20 PM59 °FMore clouds than sun.9 mph72%29.62 "HgN/A
Weather by CustomWeather, © 2016

See weather overviewHow to use our weather pages